START_TIME,STEP,MOV.,M15,t_acc.,M20,t_acc.
1979-08-02 12:00:42.720 ,0,0,0.,24.0,0.,24.0
1979-08-02 12:01:06.720 ,1,1,0.,24.0,0.,24.0
1979-08-02 12:01:30.720 ,1,0,0.,24.0,0.,24.0
1979-08-02 12:01:54.720 ,2,1,0.,24.0,0.,24.0
1979-08-02 12:02:18.720 ,2,0,0.,24.0,0.,24.0
1979-08-02 12:02:42.720 ,3,1,0.,24.0,0.,24.0
1979-08-02 12:03:06.720 ,3,0,0.,24.0,0.,24.0
1979-08-02 12:03:30.720 ,4,1,0.,24.0,0.,24.0
1979-08-02 12:03:54.720 ,4,0,0.,24.0,0.,24.0
1979-08-02 12:04:18.720 ,5,1,0.,24.0,0.,24.0
1979-08-02 12:04:42.720 ,5,0,0.,24.0,0.,24.0
1979-08-02 12:05:06.720 ,6,1,0.,24.0,0.,24.0
1979-08-02 12:05:30.720 ,6,0,0.,24.0,0.,24.0
1979-08-02 12:05:54.720 ,7,1,0.,24.0,0.,24.0
1979-08-02 12:06:18.720 ,7,0,0.,24.0,0.,24.0
1979-08-02 12:06:42.720 ,7,1,0.,24.0,0.,24.0
1979-08-02 12:07:06.720 ,7,0,0.,24.0,0.,24.0
1979-08-02 12:07:30.720 ,6,1,0.,24.0,0.,24.0
1979-08-02 12:07:54.720 ,6,0,0.,24.0,0.,24.0
1979-08-02 12:08:18.720 ,5,1,0.,24.0,0.,24.0
1979-08-02 12:08:42.720 ,5,0,0.,24.0,0.,24.0
1979-08-02 12:09:06.720 ,4,1,0.,24.0,0.,24.0
1979-08-02 12:09:30.720 ,4,0,0.,24.0,0.,24.0
1979-08-02 12:09:54.720 ,3,1,0.,24.0,0.,24.0
1979-08-02 12:10:18.720 ,3,0,0.,24.0,0.,24.0
1979-08-02 12:10:42.720 ,2,1,0.,24.0,0.,24.0
1979-08-02 12:11:06.720 ,2,0,0.,24.0,0.,24.0
1979-08-02 12:11:30.720 ,1,1,0.,24.0,0.,24.0
1979-08-02 12:11:54.720 ,1,0,0.,24.0,0.,24.0
1979-08-02 12:12:18.720 ,0,1,0.,24.0,0.,24.0
1979-08-02 12:12:42.720 ,0,0,0.,24.0,0.,24.0
1979-08-02 12:13:06.720 ,0,1,0.,24.0,0.,24.0
1979-08-02 12:13:30.720 ,0,0,0.,24.0,0.,24.0
1979-08-02 12:13:54.720 ,1,1,0.,24.0,0.,24.0
1979-08-02 12:14:18.720 ,1,0,0.,24.0,0.,24.0
1979-08-02 12:14:42.720 ,2,1,0.,24.0,0.,24.0
1979-08-02 12:15:06.720 ,2,0,0.,24.0,0.,24.0
1979-08-02 12:15:30.720 ,3,1,0.,24.0,0.,24.0
1979-08-02 12:15:54.720 ,3,0,0.,24.0,0.,24.0
1979-08-02 12:16:18.720 ,4,1,0.,24.0,0.,24.0
1979-08-02 12:16:42.720 ,4,0,0.,24.0,0.,24.0
1979-08-02 12:17:06.710 ,5,1,0.,24.0,0.,24.0
1979-08-02 12:17:30.710 ,5,0,0.,24.0,0.,24.0
1979-08-02 12:17:54.710 ,6,1,0.,24.0,0.,24.0
1979-08-02 12:18:18.710 ,6,0,0.,24.0,0.,24.0
1979-08-02 12:18:42.710 ,7,0,0.,24.0,0.,24.0
1979-08-02 12:19:06.710 ,7,0,0.,24.0,0.,24.0
1979-08-02 12:19:30.710 ,3,1,0.,24.0,0.,24.0
1979-08-02 12:19:54.710 ,0,1,0.,24.0,0.,24.0
1979-08-02 12:20:18.710 ,4,1,0.,24.0,0.,24.0
1979-08-02 12:20:42.710 ,7,1,0.,24.0,0.,24.0
1979-08-02 12:21:06.710 ,3,1,0.,24.0,0.,24.0
1979-08-02 12:21:30.710 ,0,1,0.,24.0,0.,24.0
1979-08-02 12:21:54.710 ,4,1,0.,24.0,0.,24.0
1979-08-02 12:22:18.710 ,7,1,0.,24.0,0.,24.0
1979-08-02 12:22:42.710 ,3,1,0.,24.0,0.,24.0
1979-08-02 12:23:06.710 ,0,1,0.,24.0,0.,24.0
1979-08-02 12:23:30.710 ,4,1,0.,24.0,0.,24.0
1979-08-02 12:23:54.710 ,7,1,0.,24.0,0.,24.0
1979-08-02 12:24:18.710 ,3,1,0.,24.0,0.,24.0
1979-08-02 12:24:42.710 ,0,1,0.,24.0,0.,24.0
1979-08-02 12:25:06.710 ,4,1,0.,24.0,0.,24.0
1979-08-02 12:25:30.710 ,7,1,0.,24.0,0.,24.0
1979-08-02 12:25:54.710 ,3,1,0.,24.0,0.,24.0
1979-08-02 12:26:18.710 ,0,1,0.,24.0,0.,24.0
1979-08-02 12:26:42.710 ,4,1,0.,24.0,0.,24.0
1979-08-02 12:27:06.710 ,7,1,0.,24.0,0.,24.0
1979-08-02 12:27:30.710 ,3,1,0.,24.0,0.,24.0
1979-08-02 12:27:54.710 ,0,1,0.,24.0,0.,24.0
1979-08-02 12:28:18.710 ,4,1,0.,24.0,0.,24.0
1979-08-02 12:28:42.710 ,7,1,0.,24.0,0.,24.0
1979-08-02 12:29:06.710 ,3,1,0.,24.0,0.,24.0
1979-08-02 12:29:30.710 ,0,1,0.,24.0,0.,24.0
1979-08-02 12:29:54.710 ,0,0,0.,24.0,0.,24.0
1979-08-02 12:30:18.710 ,0,0,0.,24.0,0.,24.0
1979-08-02 12:30:42.710 ,5,1,0.,24.0,0.,24.0
1979-08-02 12:31:06.710 ,5,0,0.,24.0,0.,24.0
1979-08-02 12:31:30.710 ,4,1,0.,24.0,0.,24.0
1979-08-02 12:31:54.710 ,4,0,0.,24.0,0.,24.0
1979-08-02 12:32:18.710 ,3,1,0.,24.0,0.,24.0
1979-08-02 12:32:42.710 ,3,0,0.,24.0,0.,24.0
1979-08-02 12:33:54.710 ,0,0,0.,24.0,0.,24.0
1979-08-02 12:34:18.710 ,0,0,0.,24.0,0.,24.0
1979-08-02 12:34:42.710 ,0,1,0.,24.0,0.,24.0
1979-08-02 12:35:06.710 ,0,0,0.,24.0,0.,24.0
1979-08-02 12:35:30.710 ,0,1,0.,24.0,0.,24.0
1979-08-02 12:35:54.710 ,0,0,0.,24.0,0.,24.0
1979-08-02 12:36:18.710 ,1,1,0.,24.0,0.,24.0
1979-08-02 12:36:42.710 ,1,0,0.,24.0,0.,24.0
1979-08-02 12:37:06.710 ,2,1,0.,24.0,0.,24.0
1979-08-02 12:37:30.710 ,2,0,0.,24.0,0.,24.0
1979-08-02 12:37:54.710 ,3,1,0.,24.0,0.,24.0
1979-08-02 12:38:18.710 ,3,0,0.,24.0,0.,24.0
1979-08-02 12:38:42.710 ,4,1,0.,24.0,0.,24.0
1979-08-02 12:39:06.710 ,4,0,0.,24.0,0.,24.0
1979-08-02 12:39:30.710 ,5,1,0.,24.0,0.,24.0
1979-08-02 12:39:54.710 ,5,0,0.,24.0,0.,24.0
1979-08-02 12:40:18.710 ,6,1,0.,24.0,0.,24.0
1979-08-02 12:40:42.710 ,6,0,0.,24.0,0.,24.0
1979-08-02 12:41:06.710 ,7,1,0.,24.0,0.,24.0
1979-08-02 12:41:30.710 ,7,0,0.,24.0,0.,24.0
1979-08-02 12:41:54.710 ,7,1,0.,24.0,0.,24.0
1979-08-02 12:42:18.710 ,7,0,0.,24.0,0.,24.0
1979-08-02 12:42:42.710 ,6,1,0.,24.0,0.,24.0
1979-08-02 12:43:06.710 ,6,0,0.,24.0,0.,24.0
1979-08-02 12:43:30.710 ,5,1,0.,24.0,0.,24.0
1979-08-02 12:43:54.710 ,5,0,0.,24.0,0.,24.0
1979-08-02 12:44:18.710 ,4,1,0.,24.0,0.,24.0
1979-08-02 12:44:42.710 ,4,0,0.,24.0,0.,24.0
1979-08-02 12:45:06.710 ,3,1,1.,24.0,0.,24.0
1979-08-02 12:45:30.710 ,3,0,0.,24.0,0.,24.0
1979-08-02 12:45:54.710 ,2,1,1.,24.0,0.,24.0
1979-08-02 12:46:18.710 ,2,0,0.,24.0,0.,24.0
1979-08-02 12:46:42.710 ,1,1,0.,24.0,0.,24.0
1979-08-02 12:47:06.710 ,1,0,0.,24.0,0.,24.0
1979-08-02 12:47:30.710 ,0,1,0.,24.0,0.,24.0
1979-08-02 12:47:54.710 ,0,0,0.,24.0,0.,24.0
1979-08-02 12:48:18.710 ,0,1,0.,24.0,0.,24.0
1979-08-02 12:48:42.710 ,0,0,0.,24.0,0.,24.0
1979-08-02 12:49:06.710 ,1,1,0.,24.0,0.,24.0
1979-08-02 12:49:30.710 ,1,0,0.,24.0,0.,24.0
1979-08-02 12:49:54.710 ,2,1,0.,24.0,0.,24.0
1979-08-02 12:50:18.710 ,2,0,0.,24.0,0.,24.0
1979-08-02 12:50:42.710 ,3,1,0.,24.0,0.,24.0
1979-08-02 12:51:06.710 ,3,0,0.,24.0,0.,24.0
1979-08-02 12:51:30.710 ,4,1,0.,24.0,0.,24.0
1979-08-02 12:51:54.710 ,4,0,0.,24.0,0.,24.0
1979-08-02 12:52:18.710 ,5,1,0.,24.0,0.,24.0
1979-08-02 12:52:42.710 ,5,0,0.,24.0,0.,24.0
1979-08-02 12:53:06.710 ,6,1,0.,24.0,0.,24.0
1979-08-02 12:53:30.710 ,6,0,0.,24.0,0.,24.0
1979-08-02 12:53:54.710 ,7,1,0.,24.0,0.,24.0
1979-08-02 12:54:18.710 ,7,0,0.,24.0,0.,24.0
1979-08-02 12:54:42.710 ,7,1,0.,24.0,0.,24.0
1979-08-02 12:55:06.710 ,7,0,0.,24.0,0.,24.0
1979-08-02 12:55:30.710 ,6,1,0.,24.0,0.,24.0
1979-08-02 12:55:54.710 ,6,0,0.,24.0,0.,24.0
1979-08-02 12:56:18.710 ,5,1,0.,24.0,0.,24.0
1979-08-02 12:56:42.710 ,5,0,0.,24.0,0.,24.0
1979-08-02 12:57:06.710 ,4,1,0.,24.0,0.,24.0
1979-08-02 12:57:30.710 ,4,0,0.,24.0,0.,24.0
1979-08-02 12:57:54.710 ,3,1,0.,24.0,0.,24.0
1979-08-02 12:58:18.710 ,3,0,0.,24.0,0.,24.0
1979-08-02 12:58:42.710 ,2,1,0.,24.0,0.,24.0
1979-08-02 12:59:06.710 ,2,0,0.,24.0,0.,24.0
1979-08-02 12:59:30.710 ,1,1,0.,24.0,0.,24.0
1979-08-02 12:59:54.710 ,1,0,0.,24.0,0.,24.0
1979-08-02 13:00:18.710 ,0,1,0.,24.0,0.,24.0
1979-08-02 13:00:42.710 ,0,0,0.,24.0,0.,24.0
1979-08-02 13:01:06.710 ,0,1,0.,24.0,0.,24.0
1979-08-02 13:01:30.710 ,0,0,0.,24.0,0.,24.0
1979-08-02 13:01:54.710 ,1,1,0.,24.0,0.,24.0
1979-08-02 13:02:18.710 ,1,0,0.,24.0,0.,24.0
1979-08-02 13:02:42.710 ,2,1,0.,24.0,0.,24.0
1979-08-02 13:03:06.710 ,2,0,0.,24.0,0.,24.0
1979-08-02 13:03:30.710 ,3,1,0.,24.0,0.,24.0
1979-08-02 13:03:54.710 ,3,0,0.,24.0,0.,24.0
1979-08-02 13:04:18.710 ,4,1,0.,24.0,0.,24.0
1979-08-02 13:04:42.710 ,4,0,0.,24.0,0.,24.0
1979-08-02 13:05:06.710 ,5,1,0.,24.0,0.,24.0
1979-08-02 13:05:30.710 ,5,0,0.,24.0,0.,24.0
1979-08-02 13:05:54.710 ,6,1,0.,24.0,0.,24.0
1979-08-02 13:06:18.710 ,6,0,0.,24.0,0.,24.0
1979-08-02 13:06:42.710 ,7,0,0.,24.0,0.,24.0
1979-08-02 13:07:06.710 ,7,0,0.,24.0,0.,24.0
1979-08-02 13:07:30.710 ,3,1,0.,24.0,0.,24.0
1979-08-02 13:07:54.710 ,0,1,0.,24.0,0.,24.0
1979-08-02 13:08:18.710 ,4,1,0.,24.0,0.,24.0
1979-08-02 13:08:42.710 ,7,1,0.,24.0,0.,24.0
1979-08-02 13:09:06.710 ,3,1,0.,24.0,0.,24.0
1979-08-02 13:09:30.710 ,0,1,0.,24.0,0.,24.0
1979-08-02 13:09:54.710 ,4,1,0.,24.0,0.,24.0
1979-08-02 13:10:18.710 ,7,1,0.,24.0,0.,24.0
1979-08-02 13:10:42.710 ,3,1,0.,24.0,0.,24.0
1979-08-02 13:11:06.710 ,0,1,0.,24.0,0.,24.0
1979-08-02 13:11:30.710 ,4,1,0.,24.0,0.,24.0
1979-08-02 13:11:54.710 ,7,1,0.,24.0,0.,24.0
1979-08-02 13:12:18.710 ,3,1,0.,24.0,0.,24.0
1979-08-02 13:12:42.710 ,0,1,0.,24.0,0.,24.0
1979-08-02 13:13:06.710 ,4,1,0.,24.0,0.,24.0
1979-08-02 13:13:30.710 ,7,1,0.,24.0,0.,24.0
1979-08-02 13:13:54.710 ,3,1,0.,24.0,0.,24.0
1979-08-02 13:14:18.710 ,0,1,0.,24.0,0.,24.0
1979-08-02 13:14:42.710 ,4,1,0.,24.0,0.,24.0
1979-08-02 13:15:06.710 ,7,1,0.,24.0,0.,24.0
1979-08-02 13:15:30.710 ,3,1,0.,24.0,0.,24.0
1979-08-02 13:15:54.710 ,0,1,0.,24.0,0.,24.0
1979-08-02 13:16:18.710 ,4,1,0.,24.0,0.,24.0
1979-08-02 13:16:42.710 ,7,1,0.,24.0,0.,24.0
1979-08-02 13:17:06.710 ,3,1,0.,24.0,0.,24.0
1979-08-02 13:17:30.710 ,0,1,0.,24.0,0.,24.0
1979-08-02 13:17:54.710 ,0,0,0.,24.0,0.,24.0
1979-08-02 13:18:18.710 ,0,0,0.,24.0,0.,24.0
1979-08-02 13:18:42.710 ,5,1,0.,24.0,0.,24.0
1979-08-02 13:19:06.710 ,5,0,0.,24.0,0.,24.0
1979-08-02 13:19:30.710 ,4,1,0.,24.0,0.,24.0
1979-08-02 13:19:54.710 ,4,0,0.,24.0,0.,24.0
1979-08-02 13:20:18.710 ,3,1,0.,24.0,0.,24.0
1979-08-02 13:20:42.710 ,3,0,0.,24.0,0.,24.0
1979-08-02 13:21:06.710 ,2,1,0.,24.0,0.,24.0
1979-08-02 13:21:30.710 ,2,0,0.,24.0,0.,24.0
1979-08-02 13:21:54.710 ,1,1,0.,24.0,0.,24.0
1979-08-02 13:22:18.710 ,1,0,0.,24.0,0.,24.0
1979-08-02 13:22:42.710 ,0,1,0.,24.0,0.,24.0
1979-08-02 13:23:06.710 ,0,0,0.,24.0,0.,24.0
1979-08-02 13:23:30.710 ,0,1,0.,24.0,0.,24.0
1979-08-02 13:23:54.710 ,0,0,0.,24.0,0.,24.0
1979-08-02 13:24:18.710 ,1,1,0.,24.0,0.,24.0
1979-08-02 13:24:42.710 ,1,0,0.,24.0,0.,24.0
1979-08-02 13:25:06.710 ,2,1,0.,24.0,0.,24.0
1979-08-02 13:25:30.710 ,2,0,0.,24.0,0.,24.0
1979-08-02 13:25:54.710 ,3,1,0.,24.0,0.,24.0
1979-08-02 13:26:18.710 ,3,0,0.,24.0,0.,24.0
1979-08-02 13:26:42.710 ,4,1,0.,24.0,0.,24.0
1979-08-02 13:27:06.710 ,4,0,0.,24.0,0.,24.0
1979-08-02 13:27:30.710 ,5,1,0.,24.0,0.,24.0
1979-08-02 13:27:54.710 ,5,0,0.,24.0,0.,24.0
1979-08-02 13:28:18.710 ,6,1,0.,24.0,0.,24.0
1979-08-02 13:28:42.710 ,6,0,0.,24.0,0.,24.0
1979-08-02 13:29:06.710 ,7,1,0.,24.0,0.,24.0
1979-08-02 13:29:30.710 ,7,0,0.,24.0,0.,24.0
1979-08-02 13:29:54.710 ,7,1,0.,24.0,0.,24.0
1979-08-02 13:28:42.710 ,6,0,0.,24.0,0.,24.0
1979-08-02 13:29:06.710 ,7,1,0.,24.0,0.,24.0
1979-08-02 13:29:30.710 ,7,0,0.,24.0,0.,24.0
1979-08-02 13:29:54.710 ,7,1,0.,24.0,0.,24.0
1979-08-02 13:30:18.710 ,7,0,0.,24.0,0.,24.0
1979-08-02 13:30:42.710 ,6,1,0.,24.0,0.,24.0
1979-08-02 13:31:06.710 ,6,0,0.,24.0,0.,24.0
1979-08-02 13:31:30.710 ,5,1,0.,24.0,0.,24.0
1979-08-02 13:31:54.710 ,5,0,0.,24.0,0.,24.0
1979-08-02 13:32:18.710 ,4,1,0.,24.0,0.,24.0
1979-08-02 13:32:42.710 ,4,0,0.,24.0,0.,24.0
1979-08-02 13:33:06.710 ,3,1,0.,24.0,0.,24.0
1979-08-02 13:33:30.710 ,3,0,0.,24.0,0.,24.0
1979-08-02 13:33:54.710 ,2,1,0.,24.0,0.,24.0
1979-08-02 13:34:18.710 ,2,0,0.,24.0,0.,24.0
1979-08-02 13:34:42.710 ,1,1,0.,24.0,0.,24.0
1979-08-02 13:35:06.710 ,1,0,0.,24.0,0.,24.0
1979-08-02 13:35:30.710 ,0,1,0.,24.0,0.,24.0
1979-08-02 13:35:54.710 ,0,0,0.,24.0,0.,24.0
1979-08-02 13:36:18.710 ,0,1,0.,24.0,0.,24.0
1979-08-02 13:36:42.710 ,0,0,0.,24.0,0.,24.0
1979-08-02 13:37:08.510 ,1,1,0.,24.0,0.,24.0
1979-08-02 13:37:30.710 ,1,0,0.,24.0,0.,24.0
1979-08-02 13:37:54.710 ,2,1,0.,24.0,0.,24.0
1979-08-02 13:38:18.710 ,2,0,0.,24.0,0.,24.0
1979-08-02 13:38:42.710 ,3,1,0.,24.0,0.,24.0
1979-08-02 13:39:06.710 ,3,0,0.,24.0,0.,24.0
1979-08-02 13:39:30.710 ,4,1,0.,24.0,0.,24.0
1979-08-02 13:39:54.710 ,4,0,0.,24.0,0.,24.0
1979-08-02 13:40:18.710 ,5,1,0.,24.0,0.,24.0
1979-08-02 13:40:42.710 ,5,0,0.,24.0,0.,24.0
1979-08-02 13:41:06.710 ,6,1,0.,24.0,0.,24.0
1979-08-02 13:41:30.710 ,6,0,0.,24.0,0.,24.0
1979-08-02 13:41:54.710 ,7,1,0.,24.0,0.,24.0
1979-08-02 13:42:18.710 ,7,0,0.,24.0,0.,24.0
1979-08-02 13:42:42.710 ,7,1,0.,24.0,0.,24.0
1979-08-02 13:43:06.710 ,7,0,0.,24.0,0.,24.0
1979-08-02 13:43:30.710 ,6,1,0.,24.0,0.,24.0
1979-08-02 13:43:54.710 ,6,0,0.,24.0,0.,24.0
1979-08-02 13:44:18.710 ,5,1,0.,24.0,0.,24.0
1979-08-02 13:44:42.710 ,5,0,0.,24.0,0.,24.0
1979-08-02 13:45:06.710 ,4,1,0.,24.0,0.,24.0
1979-08-02 13:45:30.710 ,4,0,0.,24.0,0.,24.0
1979-08-02 13:45:54.710 ,3,1,0.,24.0,0.,24.0
1979-08-02 13:46:18.710 ,3,0,0.,24.0,0.,24.0
1979-08-02 13:46:42.710 ,2,1,0.,24.0,0.,24.0
1979-08-02 13:47:06.710 ,2,0,0.,24.0,0.,24.0
1979-08-02 13:47:30.710 ,1,1,0.,24.0,0.,24.0
1979-08-02 13:47:54.710 ,1,0,0.,24.0,0.,24.0
1979-08-02 13:48:18.710 ,0,1,0.,24.0,0.,24.0
1979-08-02 13:48:42.710 ,0,0,0.,24.0,0.,24.0
1979-08-02 13:49:06.710 ,0,1,0.,24.0,0.,24.0
